Location: Cosy Dell
(34.2789°N, 117.4537°W)
Time: 12:21:41
(UTC+00:00)

CZ-2D R/B - Pass Details

Date: 14 July 2020
Orbit: 792 x 844 km, 98.7° (Epoch: 09 August)

Event Time Altitude Azimuth Distance (km) Brightness Sun altitude
Rises 09:08:50 0° 16° (NNE) 3,353 6.5 -31.5°
Reaches altitude 10° 09:11:11 10° 19° (NNE) 2,425 5.5 -31.3°
Enters shadow 09:15:43 57° 57° (ENE) 969 2.6 -31.0°
